CST,Max TemperatureF,Mean TemperatureF,Min TemperatureF,Max Dew PointF,MeanDew PointF,Min DewpointF,Max Humidity, Mean Humidity, Min Humidity, Max Sea Level PressureIn, Mean Sea Level PressureIn, Min Sea Level PressureIn, Max VisibilityMiles, Mean VisibilityMiles, Min VisibilityMiles, Max Wind SpeedMPH, Mean Wind SpeedMPH, Max Gust SpeedMPH,PrecipitationIn, CloudCover, Events, WindDirDegrees
2012-12-1,66,51,36,54,49,32,95,77,64,30.09,29.99,29.91,10,9,2,18,6,23,0.00,4,,167
2012-12-2,68,58,47,56,53,46,96,80,57,30.03,29.98,29.90,10,8,0,13,7,,0.00,2,Fog,214
2012-12-3,74,64,54,60,57,48,96,74,54,29.98,29.90,29.80,10,9,2,28,11,34,0.18,4,Rain,185
2012-12-4,59,48,37,50,38,32,89,66,37,30.31,30.17,29.99,10,10,7,12,6,16,0.09,1,Rain,310
2012-12-5,49,42,35,37,33,29,84,70,59,30.40,30.33,30.23,10,10,10,9,6,,0.00,0,,61
2012-12-6,52,44,37,43,40,34,93,77,60,30.07,29.97,29.93,10,10,7,10,6,,0.03,3,Rain,154
2012-12-7,47,46,44,46,44,43,97,94,91,29.94,29.89,29.84,10,3,0,12,4,,0.02,7,Fog-Rain,33
2012-12-8,45,42,39,45,39,36,97,92,84,30.03,29.97,29.87,10,5,0,13,6,17,0.03,8,Fog-Rain,21
2012-12-9,46,39,31,44,39,25,97,90,78,29.96,29.86,29.78,10,5,0,15,8,22,0.04,8,Fog-Rain,290
2012-12-10,31,28,24,25,22,19,83,76,70,30.06,29.96,29.89,10,10,10,17,11,25,0.00,7,,278
2012-12-11,40,30,21,25,22,18,89,72,53,30.20,30.09,30.05,10,10,10,13,6,,0.00,0,,209
2012-12-12,49,38,27,28,24,21,79,61,35,30.30,30.25,30.20,10,10,10,12,6,16,0.00,0,,176
2012-12-13,54,42,31,28,24,22,76,53,33,30.28,30.21,30.13,10,10,10,16,7,18,0.00,0,,172
2012-12-14,54,44,33,36,29,23,74,54,35,30.19,30.10,29.94,10,10,10,12,6,,0.00,2,Rain,167
2012-12-15,57,50,43,48,44,36,95,79,65,29.92,29.69,29.57,10,9,4,17,11,25,0.44,8,Rain,194
2012-12-16,50,44,39,46,39,35,87,82,76,29.78,29.73,29.68,10,9,7,13,6,16,0.00,8,,289
2012-12-17,39,36,32,36,34,32,100,92,84,29.79,29.74,29.69,10,4,0,7,3,,0.25,7,Rain-Snow,325
2012-12-18,55,44,32,40,34,30,97,79,48,29.91,29.74,29.60,10,7,2,21,8,30,0.00,1,,211
2012-12-19,45,37,30,43,34,28,96,92,84,30.03,29.87,29.50,7,4,2,15,5,22,0.12,4,Rain-Thunderstorm,81
2012-12-20,53,39,24,51,34,18,96,86,73,29.94,29.50,29.18,10,6,0,31,17,47,0.06,7,Rain-Snow-Thunderstorm,250
2012-12-21,31,26,20,17,15,13,74,65,47,30.30,30.19,29.95,10,10,10,21,14,30,0.00,0,,283
2012-12-22,40,28,15,28,20,13,93,72,58,30.28,30.12,29.93,10,10,10,10,4,,0.00,0,,160
2012-12-23,35,30,26,28,26,22,90,79,63,30.01,29.94,29.89,10,9,5,8,4,,0.00,0,,14
2012-12-24,30,26,22,28,23,15,98,87,73,30.15,29.99,29.85,10,5,1,17,8,21,0.00,8,,314
2012-12-25,28,25,22,22,21,19,91,82,74,30.31,30.20,30.11,10,9,5,16,8,25,0.00,7,,4
2012-12-26,30,26,23,24,22,20,86,82,75,30.19,30.10,30.02,10,10,10,20,14,26,0.00,7,,331
2012-12-27,32,26,19,25,22,18,93,82,68,30.21,30.14,30.07,10,10,7,13,3,16,0.00,5,,99
2012-12-28,34,31,28,30,28,25,92,87,79,30.06,29.97,29.91,10,8,5,9,5,,0.00,7,,128
2012-12-29,31,25,18,28,21,15,91,82,69,30.31,30.14,29.93,10,7,2,16,9,22,0.00,5,Snow,278
2012-12-30,42,30,19,26,22,16,89,69,43,30.38,30.29,30.15,10,10,7,13,6,17,0.00,0,,199
2012-12-31,39,30,22,32,27,18,96,81,47,30.16,30.13,30.09,10,7,0,15,9,20,0.06,6,Rain-Snow,269